2018,08,08,00,00,00,20.6,,,,,,,,,,,,,,
2018,08,08,00,01,00,,,,,,,,,,,,,,,
2018,08,08,00,02,00,20.7,,,,,,,,,,,,,,
2018,08,08,00,03,00,19.8,,,,,,,,,,,,,,
2018,08,08,00,04,00,19.7,,,,,,,,,,,,,,
2018,08,08,00,05,00,18.7,,,,,,,,,,,,,,
2018,08,08,00,06,00,18.4,,,,,,,,,,,,,,
2018,08,08,00,07,00,18.2,,,,,,,,,,,,,,
2018,08,08,00,08,00,19.1,,,,,,,,,,,,,,
2018,08,08,00,09,00,20.3,,,,,,,,,,,,,,
2018,08,08,00,10,00,19.8,,,,,,,,,,,,,,
2018,08,08,00,11,00,19.4,,,,,,,,,,,,,,
2018,08,08,00,12,00,18.9,,,,,,,,,,,,,,
2018,08,08,00,13,00,17.7,,,,,,,,,,,,,,
2018,08,08,00,14,00,17.4,,,,,,,,,,,,,,
2018,08,08,00,15,00,16.9,,,,,,,,,,,,,,
2018,08,08,00,16,00,16.2,,,,,,,,,,,,,,
2018,08,08,00,17,00,16.2,,,,,,,,,,,,,,
2018,08,08,00,18,00,8.8,,,,,,,,,,,,,,
2018,08,08,00,19,00,6.5,,,,,,,,,,,,,,
2018,08,08,00,20,00,10.9,,,,,,,,,,,,,,
2018,08,08,00,21,00,12.0,,,,,,,,,,,,,,
2018,08,08,00,22,00,14.0,,,,,,,,,,,,,,
2018,08,08,00,23,00,14.3,,,,,,,,,,,,,,
2018,08,08,00,24,00,14.5,,,,,,,,,,,,,,
2018,08,08,00,25,00,14.4,,,,,,,,,,,,,,
2018,08,08,00,26,00,14.4,,,,,,,,,,,,,,
2018,08,08,00,27,00,13.4,,,,,,,,,,,,,,
2018,08,08,00,28,00,13.3,,,,,,,,,,,,,,
2018,08,08,00,29,00,13.8,,,,,,,,,,,,,,
2018,08,08,00,30,00,14.6,,,,,,,,,,,,,,
2018,08,08,00,31,00,14.5,,,,,,,,,,,,,,
2018,08,08,00,32,00,14.2,,,,,,,,,,,,,,
2018,08,08,00,33,00,13.7,,,,,,,,,,,,,,
2018,08,08,00,34,00,12.9,,,,,,,,,,,,,,
2018,08,08,00,35,00,10.4,,,,,,,,,,,,,,
2018,08,08,00,36,00,9.4,,,,,,,,,,,,,,
2018,08,08,00,37,00,9.9,,,,,,,,,,,,,,
2018,08,08,00,38,00,13.0,,,,,,,,,,,,,,
2018,08,08,00,39,00,15.0,,,,,,,,,,,,,,
2018,08,08,00,40,00,15.9,,,,,,,,,,,,,,
2018,08,08,00,41,00,15.7,,,,,,,,,,,,,,
2018,08,08,00,42,00,14.1,,,,,,,,,,,,,,
2018,08,08,00,43,00,14.1,,,,,,,,,,,,,,
2018,08,08,00,44,00,14.8,,,,,,,,,,,,,,
2018,08,08,00,45,00,14.2,,,,,,,,,,,,,,
2018,08,08,00,46,00,15.6,,,,,,,,,,,,,,
2018,08,08,00,47,00,12.0,,,,,,,,,,,,,,
2018,08,08,00,48,00,9.8,,,,,,,,,,,,,,
2018,08,08,00,49,00,4.6,,,,,,,,,,,,,,
2018,08,08,00,50,00,8.2,,,,,,,,,,,,,,
2018,08,08,00,51,00,13.0,,,,,,,,,,,,,,
2018,08,08,00,52,00,13.2,,,,,,,,,,,,,,
2018,08,08,00,53,00,13.4,,,,,,,,,,,,,,
2018,08,08,00,54,00,12.5,,,,,,,,,,,,,,
2018,08,08,00,55,00,13.7,,,,,,,,,,,,,,
2018,08,08,00,56,00,14.6,,,,,,,,,,,,,,
2018,08,08,00,57,00,13.1,,,,,,,,,,,,,,
2018,08,08,00,58,00,,,,,,,,,,,,,,,
2018,08,08,00,59,00,,,,,,,,,,,,,,,
2018,08,08,01,00,00,12.5,,,,,,,,,,,,,,
2018,08,08,01,01,00,12.3,,,,,,,,,,,,,,
2018,08,08,01,02,00,11.0,,,,,,,,,,,,,,
2018,08,08,01,03,00,,,,,,,,,,,,,,,
2018,08,08,01,04,00,,,,,,,,,,,,,,,
2018,08,08,01,05,00,,,,,,,,,,,,,,,
2018,08,08,01,06,00,,,,,,,,,,,,,,,
2018,08,08,01,07,00,16.2,,,,,,,,,,,,,,
2018,08,08,01,08,00,17.4,,,,,,,,,,,,,,
2018,08,08,01,09,00,19.4,,,,,,,,,,,,,,
2018,08,08,01,10,00,20.0,,,,,,,,,,,,,,
2018,08,08,01,11,00,22.7,,,,,,,,,,,,,,
2018,08,08,01,12,00,,,,,,,,,,,,,,,
2018,08,08,01,13,00,,,,,,,,,,,,,,,
2018,08,08,01,14,00,22.9,,,,,,,,,,,,,,
2018,08,08,01,15,00,23.7,,,,,,,,,,,,,,
2018,08,08,01,16,00,25.1,,,,,,,,,,,,,,
2018,08,08,01,17,00,,,,,,,,,,,,,,,
2018,08,08,01,18,00,,,,,,,,,,,,,,,
2018,08,08,01,19,00,25.1,,,,,,,,,,,,,,
2018,08,08,01,20,00,24.3,,,,,,,,,,,,,,
2018,08,08,01,21,00,24.2,,,,,,,,,,,,,,
2018,08,08,01,22,00,26.6,,,,,,,,,,,,,,
2018,08,08,01,23,00,28.8,,,,,,,,,,,,,,
2018,08,08,01,24,00,31.6,,,,,,,,,,,,,,
2018,08,08,01,25,00,33.2,,,,,,,,,,,,,,
2018,08,08,01,26,00,32.6,,,,,,,,,,,,,,
2018,08,08,01,27,00,32.7,,,,,,,,,,,,,,
2018,08,08,01,28,00,,,,,,,,,,,,,,,
2018,08,08,01,29,00,,,,,,,,,,,,,,,
2018,08,08,01,30,00,33.8,,,,,,,,,,,,,,
2018,08,08,01,31,00,,,,,,,,,,,,,,,
2018,08,08,01,32,00,,,,,,,,,,,,,,,
2018,08,08,01,33,00,,,,,,,,,,,,,,,
2018,08,08,01,34,00,34.4,,,,,,,,,,,,,,
2018,08,08,01,35,00,34.2,,,,,,,,,,,,,,
2018,08,08,01,36,00,32.9,,,,,,,,,,,,,,
2018,08,08,01,37,00,,,,,,,,,,,,,,,
2018,08,08,01,38,00,,,,,,,,,,,,,,,
2018,08,08,01,39,00,,,,,,,,,,,,,,,
2018,08,08,01,40,00,,,,,,,,,,,,,,,
2018,08,08,01,41,00,,,,,,,,,,,,,,,
2018,08,08,01,42,00,,,,,,,,,,,,,,,
2018,08,08,01,43,00,,,,,,,,,,,,,,,
2018,08,08,01,44,00,,,,,,,,,,,,,,,
2018,08,08,01,45,00,,,,,,,,,,,,,,,
2018,08,08,01,46,00,,,,,,,,,,,,,,,
2018,08,08,01,47,00,,,,,,,,,,,,,,,
2018,08,08,01,48,00,,,,,,,,,,,,,,,
2018,08,08,01,49,00,36.5,,,,,,,,,,,,,,
2018,08,08,01,50,00,43.3,,,,,,,,,,,,,,
2018,08,08,01,51,00,,,,,,,,,,,,,,,
2018,08,08,01,52,00,,,,,,,,,,,,,,,
2018,08,08,01,53,00,,,,,,,,,,,,,,,
2018,08,08,01,54,00,,,,,,,,,,,,,,,
2018,08,08,01,55,00,,,,,,,,,,,,,,,
2018,08,08,01,56,00,,,,,,,,,,,,,,,
2018,08,08,01,57,00,,,,,,,,,,,,,,,
2018,08,08,01,58,00,29.1,,,,,,,,,,,,,,
2018,08,08,01,59,00,,,,,,,,,,,,,,,
2018,08,08,02,00,00,,,,,,,,,,,,,,,
2018,08,08,02,01,00,,,,,,,,,,,,,,,
2018,08,08,02,02,00,,,,,,,,,,,,,,,
2018,08,08,02,03,00,,,,,,,,,,,,,,,
2018,08,08,02,04,00,,,,,,,,,,,,,,,
2018,08,08,02,05,00,27.7,,,,,,,,,,,,,,
2018,08,08,02,06,00,30.8,,,,,,,,,,,,,,
2018,08,08,02,07,00,29.4,,,,,,,,,,,,,,
2018,08,08,02,08,00,,,,,,,,,,,,,,,
2018,08,08,02,09,00,,,,,,,,,,,,,,,
2018,08,08,02,10,00,,,,,,,,,,,,,,,
2018,08,08,02,11,00,,,,,,,,,,,,,,,
2018,08,08,02,12,00,32.9,,,,,,,,,,,,,,
2018,08,08,02,13,00,31.0,,,,,,,,,,,,,,
2018,08,08,02,14,00,32.3,,,,,,,,,,,,,,
2018,08,08,02,15,00,26.2,,,,,,,,,,,,,,
2018,08,08,02,16,00,21.9,,,,,,,,,,,,,,
2018,08,08,02,17,00,20.0,,,,,,,,,,,,,,
2018,08,08,02,18,00,19.6,,,,,,,,,,,,,,
2018,08,08,02,19,00,17.0,,,,,,,,,,,,,,
2018,08,08,02,20,00,17.8,,,,,,,,,,,,,,
2018,08,08,02,21,00,18.9,,,,,,,,,,,,,,
2018,08,08,02,22,00,19.9,,,,,,,,,,,,,,
2018,08,08,02,23,00,20.3,,,,,,,,,,,,,,
2018,08,08,02,24,00,,,,,,,,,,,,,,,
2018,08,08,02,25,00,,,,,,,,,,,,,,,
2018,08,08,02,26,00,20.1,,,,,,,,,,,,,,
2018,08,08,02,27,00,18.6,,,,,,,,,,,,,,
2018,08,08,02,28,00,19.2,,,,,,,,,,,,,,
2018,08,08,02,29,00,19.4,,,,,,,,,,,,,,
2018,08,08,02,30,00,20.8,,,,,,,,,,,,,,
2018,08,08,02,31,00,22.1,,,,,,,,,,,,,,
2018,08,08,02,32,00,23.4,,,,,,,,,,,,,,
2018,08,08,02,33,00,21.0,,,,,,,,,,,,,,
2018,08,08,02,34,00,22.7,,,,,,,,,,,,,,
2018,08,08,02,35,00,25.5,,,,,,,,,,,,,,
2018,08,08,02,36,00,23.1,,,,,,,,,,,,,,
2018,08,08,02,37,00,22.4,,,,,,,,,,,,,,
2018,08,08,02,38,00,24.9,,,,,,,,,,,,,,
2018,08,08,02,39,00,25.3,,,,,,,,,,,,,,
2018,08,08,02,40,00,22.8,,,,,,,,,,,,,,
2018,08,08,02,41,00,25.6,,,,,,,,,,,,,,
2018,08,08,02,42,00,23.8,,,,,,,,,,,,,,
2018,08,08,02,43,00,23.7,,,,,,,,,,,,,,
2018,08,08,02,44,00,,,,,,,,,,,,,,,
2018,08,08,02,45,00,,,,,,,,,,,,,,,
2018,08,08,02,46,00,19.9,,,,,,,,,,,,,,
2018,08,08,02,47,00,23.6,,,,,,,,,,,,,,
2018,08,08,02,48,00,21.1,,,,,,,,,,,,,,
2018,08,08,02,49,00,19.5,,,,,,,,,,,,,,
2018,08,08,02,50,00,17.1,,,,,,,,,,,,,,
2018,08,08,02,51,00,17.8,,,,,,,,,,,,,,
2018,08,08,02,52,00,18.0,,,,,,,,,,,,,,
2018,08,08,02,53,00,17.2,,,,,,,,,,,,,,
2018,08,08,02,54,00,17.6,,,,,,,,,,,,,,
2018,08,08,02,55,00,,,,,,,,,,,,,,,
2018,08,08,02,56,00,,,,,,,,,,,,,,,
2018,08,08,02,57,00,19.4,,,,,,,,,,,,,,
2018,08,08,02,58,00,17.8,,,,,,,,,,,,,,
2018,08,08,02,59,00,15.5,,,,,,,,,,,,,,
2018,08,08,03,00,00,17.3,,,,,,,,,,,,,,
2018,08,08,03,01,00,,,,,,,,,,,,,,,
2018,08,08,03,02,00,,,,,,,,,,,,,,,
2018,08,08,03,03,00,,,,,,,,,,,,,,,
2018,08,08,03,04,00,,,,,,,,,,,,,,,
2018,08,08,03,05,00,,,,,,,,,,,,,,,
2018,08,08,03,06,00,,,,,,,,,,,,,,,
2018,08,08,03,07,00,,,,,,,,,,,,,,,
2018,08,08,03,08,00,14.4,,,,,,,,,,,,,,
2018,08,08,03,09,00,,,,,,,,,,,,,,,
2018,08,08,03,10,00,,,,,,,,,,,,,,,
2018,08,08,03,11,00,,,,,,,,,,,,,,,
2018,08,08,03,12,00,,,,,,,,,,,,,,,
2018,08,08,03,13,00,,,,,,,,,,,,,,,
2018,08,08,03,14,00,,,,,,,,,,,,,,,
2018,08,08,03,15,00,3.0,,,,,,,,,,,,,,
2018,08,08,03,16,00,6.7,,,,,,,,,,,,,,
2018,08,08,03,17,00,5.9,,,,,,,,,,,,,,
2018,08,08,03,18,00,,,,,,,,,,,,,,,
2018,08,08,03,19,00,,,,,,,,,,,,,,,
2018,08,08,03,20,00,3.6,,,,,,,,,,,,,,
2018,08,08,03,21,00,4.1,,,,,,,,,,,,,,
2018,08,08,03,22,00,2.3,,,,,,,,,,,,,,
2018,08,08,03,23,00,2.3,,,,,,,,,,,,,,
2018,08,08,03,24,00,2.3,,,,,,,,,,,,,,
2018,08,08,03,25,00,2.3,,,,,,,,,,,,,,
2018,08,08,03,26,00,2.3,,,,,,,,,,,,,,
2018,08,08,03,27,00,2.3,,,,,,,,,,,,,,
2018,08,08,03,28,00,1.9,,,,,,,,,,,,,,
2018,08,08,03,29,00,2.3,,,,,,,,,,,,,,
2018,08,08,03,30,00,,,,,,,,,,,,,,,
2018,08,08,03,31,00,,,,,,,,,,,,,,,
2018,08,08,03,32,00,,,,,,,,,,,,,,,
2018,08,08,03,33,00,2.3,,,,,,,,,,,,,,
2018,08,08,03,34,00,,,,,,,,,,,,,,,
2018,08,08,03,35,00,,,,,,,,,,,,,,,
2018,08,08,03,36,00,,,,,,,,,,,,,,,
2018,08,08,03,37,00,2.3,,,,,,,,,,,,,,
2018,08,08,03,38,00,,,,,,,,,,,,,,,
2018,08,08,03,39,00,,,,,,,,,,,,,,,
2018,08,08,03,40,00,,,,,,,,,,,,,,,
2018,08,08,03,41,00,,,,,,,,,,,,,,,
2018,08,08,03,42,00,,,,,,,,,,,,,,,
2018,08,08,03,43,00,,,,,,,,,,,,,,,
2018,08,08,03,44,00,,,,,,,,,,,,,,,
2018,08,08,03,45,00,10.1,,,,,,,,,,,,,,
2018,08,08,03,46,00,6.2,,,,,,,,,,,,,,
2018,08,08,03,47,00,3.3,,,,,,,,,,,,,,
2018,08,08,03,48,00,2.4,,,,,,,,,,,,,,
2018,08,08,03,49,00,2.3,,,,,,,,,,,,,,
2018,08,08,03,50,00,2.3,,,,,,,,,,,,,,
2018,08,08,03,51,00,2.3,,,,,,,,,,,,,,
2018,08,08,03,52,00,,,,,,,,,,,,,,,
2018,08,08,03,53,00,,,,,,,,,,,,,,,
2018,08,08,03,54,00,,,,,,,,,,,,,,,
2018,08,08,03,55,00,,,,,,,,,,,,,,,
2018,08,08,03,56,00,,,,,,,,,,,,,,,
2018,08,08,03,57,00,,,,,,,,,,,,,,,
2018,08,08,03,58,00,,,,,,,,,,,,,,,
2018,08,08,03,59,00,,,,,,,,,,,,,,,
2018,08,08,04,00,00,,,,,,,,,,,,,,,
2018,08,08,04,01,00,,,,,,,,,,,,,,,
2018,08,08,04,02,00,,,,,,,,,,,,,,,
2018,08,08,04,03,00,,,,,,,,,,,,,,,
2018,08,08,04,04,00,7.0,,,,,,,,,,,,,,
2018,08,08,04,05,00,,,,,,,,,,,,,,,
2018,08,08,04,06,00,,,,,,,,,,,,,,,
2018,08,08,04,07,00,,,,,,,,,,,,,,,
2018,08,08,04,08,00,6.3,,,,,,,,,,,,,,
2018,08,08,04,09,00,8.0,,,,,,,,,,,,,,
2018,08,08,04,10,00,19.5,,,,,,,,,,,,,,
2018,08,08,04,11,00,22.7,,,,,,,,,,,,,,
2018,08,08,04,12,00,21.9,,,,,,,,,,,,,,
2018,08,08,04,13,00,15.9,,,,,,,,,,,,,,
2018,08,08,04,14,00,8.4,,,,,,,,,,,,,,
2018,08,08,04,15,00,5.2,,,,,,,,,,,,,,
2018,08,08,04,16,00,4.3,,,,,,,,,,,,,,
2018,08,08,04,17,00,2.4,,,,,,,,,,,,,,
2018,08,08,04,18,00,2.7,,,,,,,,,,,,,,
2018,08,08,04,19,00,4.6,,,,,,,,,,,,,,
2018,08,08,04,20,00,4.1,,,,,,,,,,,,,,
2018,08,08,04,21,00,2.3,,,,,,,,,,,,,,
2018,08,08,04,22,00,2.3,,,,,,,,,,,,,,
2018,08,08,04,23,00,2.4,,,,,,,,,,,,,,
2018,08,08,04,24,00,2.7,,,,,,,,,,,,,,
2018,08,08,04,25,00,2.2,,,,,,,,,,,,,,
2018,08,08,04,26,00,,,,,,,,,,,,,,,
2018,08,08,04,27,00,,,,,,,,,,,,,,,
2018,08,08,04,28,00,,,,,,,,,,,,,,,
2018,08,08,04,29,00,,,,,,,,,,,,,,,
2018,08,08,04,30,00,,,,,,,,,,,,,,,
2018,08,08,04,31,00,,,,,,,,,,,,,,,
2018,08,08,04,32,00,2.3,,,,,,,,,,,,,,
2018,08,08,04,33,00,2.3,,,,,,,,,,,,,,
2018,08,08,04,34,00,2.3,,,,,,,,,,,,,,
2018,08,08,04,35,00,2.1,,,,,,,,,,,,,,
2018,08,08,04,36,00,1.8,,,,,,,,,,,,,,
2018,08,08,04,37,00,1.7,,,,,,,,,,,,,,
2018,08,08,04,38,00,1.9,,,,,,,,,,,,,,
2018,08,08,04,39,00,1.8,,,,,,,,,,,,,,
2018,08,08,04,40,00,1.5,,,,,,,,,,,,,,
2018,08,08,04,41,00,1.8,,,,,,,,,,,,,,
2018,08,08,04,42,00,1.8,,,,,,,,,,,,,,
2018,08,08,04,43,00,2.0,,,,,,,,,,,,,,
2018,08,08,04,44,00,2.3,,,,,,,,,,,,,,
2018,08,08,04,45,00,2.9,,,,,,,,,,,,,,
2018,08,08,04,46,00,4.4,,,,,,,,,,,,,,
2018,08,08,04,47,00,5.4,,,,,,,,,,,,,,
2018,08,08,04,48,00,,,,,,,,,,,,,,,
2018,08,08,04,49,00,,,,,,,,,,,,,,,
2018,08,08,04,50,00,,,,,,,,,,,,,,,
2018,08,08,04,51,00,,,,,,,,,,,,,,,
2018,08,08,04,52,00,,,,,,,,,,,,,,,
2018,08,08,04,53,00,,,,,,,,,,,,,,,
2018,08,08,04,54,00,,,,,,,,,,,,,,,
2018,08,08,04,55,00,,,,,,,,,,,,,,,
2018,08,08,04,56,00,,,,,,,,,,,,,,,
2018,08,08,04,57,00,,,,,,,,,,,,,,,
2018,08,08,04,58,00,,,,,,,,,,,,,,,
2018,08,08,04,59,00,13.6,,,,,,,,,,,,,,
2018,08,08,05,00,00,23.7,,,,,,,,,,,,,,
2018,08,08,05,01,00,20.3,,,,,,,,,,,,,,
2018,08,08,05,02,00,11.3,,,,,,,,,,,,,,
2018,08,08,05,03,00,13.5,,,,,,,,,,,,,,
2018,08,08,05,04,00,18.6,,,,,,,,,,,,,,
2018,08,08,05,05,00,16.8,,,,,,,,,,,,,,
2018,08,08,05,06,00,23.6,,,,,,,,,,,,,,
2018,08,08,05,07,00,22.9,,,,,,,,,,,,,,
2018,08,08,05,08,00,21.5,,,,,,,,,,,,,,
2018,08,08,05,09,00,20.8,,,,,,,,,,,,,,
2018,08,08,05,10,00,28.6,,,,,,,,,,,,,,
2018,08,08,05,11,00,32.2,,,,,,,,,,,,,,
2018,08,08,05,12,00,27.4,,,,,,,,,,,,,,
2018,08,08,05,13,00,25.1,,,,,,,,,,,,,,
2018,08,08,05,14,00,,,,,,,,,,,,,,,
2018,08,08,05,15,00,,,,,,,,,,,,,,,
2018,08,08,05,16,00,23.7,,,,,,,,,,,,,,
2018,08,08,05,17,00,5.6,,,,,,,,,,,,,,
2018,08,08,05,18,00,8.0,,,,,,,,,,,,,,
2018,08,08,05,19,00,19.6,,,,,,,,,,,,,,
2018,08,08,05,20,00,29.6,,,,,,,,,,,,,,
2018,08,08,05,21,00,24.0,,,,,,,,,,,,,,
2018,08,08,05,22,00,19.3,,,,,,,,,,,,,,
2018,08,08,05,23,00,24.2,,,,,,,,,,,,,,
2018,08,08,05,24,00,33.4,,,,,,,,,,,,,,
2018,08,08,05,25,00,34.3,,,,,,,,,,,,,,
2018,08,08,05,26,00,32.0,,,,,,,,,,,,,,
2018,08,08,05,27,00,36.5,,,,,,,,,,,,,,
2018,08,08,05,28,00,26.5,,,,,,,,,,,,,,
2018,08,08,05,29,00,30.4,,,,,,,,,,,,,,
2018,08,08,05,30,00,35.3,,,,,,,,,,,,,,
2018,08,08,05,31,00,45.7,,,,,,,,,,,,,,
2018,08,08,05,32,00,43.5,,,,,,,,,,,,,,
2018,08,08,05,33,00,33.7,,,,,,,,,,,,,,
2018,08,08,05,34,00,36.6,,,,,,,,,,,,,,
2018,08,08,05,35,00,52.6,,,,,,,,,,,,,,
2018,08,08,05,36,00,45.8,,,,,,,,,,,,,,
2018,08,08,05,37,00,37.7,,,,,,,,,,,,,,
2018,08,08,05,38,00,42.7,,,,,,,,,,,,,,
2018,08,08,05,39,00,50.1,,,,,,,,,,,,,,
2018,08,08,05,40,00,47.2,,,,,,,,,,,,,,
2018,08,08,05,41,00,42.8,,,,,,,,,,,,,,
2018,08,08,05,42,00,42.9,,,,,,,,,,,,,,
2018,08,08,05,43,00,33.2,,,,,,,,,,,,,,
2018,08,08,05,44,00,34.4,,,,,,,,,,,,,,
2018,08,08,05,45,00,33.8,,,,,,,,,,,,,,
2018,08,08,05,46,00,31.3,,,,,,,,,,,,,,
2018,08,08,05,47,00,28.6,,,,,,,,,,,,,,
2018,08,08,05,48,00,30.2,,,,,,,,,,,,,,
2018,08,08,05,49,00,31.9,,,,,,,,,,,,,,
2018,08,08,05,50,00,24.9,,,,,,,,,,,,,,
2018,08,08,05,51,00,25.5,,,,,,,,,,,,,,
2018,08,08,05,52,00,27.6,,,,,,,,,,,,,,
2018,08,08,05,53,00,19.3,,,,,,,,,,,,,,
2018,08,08,05,54,00,18.3,,,,,,,,,,,,,,
2018,08,08,05,55,00,19.3,,,,,,,,,,,,,,
2018,08,08,05,56,00,28.4,,,,,,,,,,,,,,
2018,08,08,05,57,00,38.7,,,,,,,,,,,,,,
2018,08,08,05,58,00,36.7,,,,,,,,,,,,,,
2018,08,08,05,59,00,30.5,,,,,,,,,,,,,,
2018,08,08,06,00,00,24.6,,,,,,,,,,,,,,
2018,08,08,06,01,00,19.7,,,,,,,,,,,,,,
2018,08,08,06,02,00,20.0,,,,,,,,,,,,,,
2018,08,08,06,03,00,18.2,,,,,,,,,,,,,,
2018,08,08,06,04,00,20.4,,,,,,,,,,,,,,
2018,08,08,06,05,00,24.4,,,,,,,,,,,,,,
2018,08,08,06,06,00,27.4,,,,,,,,,,,,,,
2018,08,08,06,07,00,,,,,,,,,,,,,,,
2018,08,08,06,08,00,,,,,,,,,,,,,,,
2018,08,08,06,09,00,23.3,,,,,,,,,,,,,,
2018,08,08,06,10,00,25.5,,,,,,,,,,,,,,
2018,08,08,06,11,00,22.8,,,,,,,,,,,,,,
2018,08,08,06,12,00,24.5,,,,,,,,,,,,,,
2018,08,08,06,13,00,26.3,,,,,,,,,,,,,,
2018,08,08,06,14,00,29.3,,,,,,,,,,,,,,
2018,08,08,06,15,00,29.5,,,,,,,,,,,,,,
2018,08,08,06,16,00,24.0,,,,,,,,,,,,,,
2018,08,08,06,17,00,24.8,,,,,,,,,,,,,,
2018,08,08,06,18,00,28.2,,,,,,,,,,,,,,
2018,08,08,06,19,00,28.8,,,,,,,,,,,,,,
2018,08,08,06,20,00,29.7,,,,,,,,,,,,,,
2018,08,08,06,21,00,34.2,,,,,,,,,,,,,,
2018,08,08,06,22,00,32.7,,,,,,,,,,,,,,
2018,08,08,06,23,00,32.2,,,,,,,,,,,,,,
2018,08,08,06,24,00,34.3,,,,,,,,,,,,,,
2018,08,08,06,25,00,37.9,,,,,,,,,,,,,,
2018,08,08,06,26,00,34.7,,,,,,,,,,,,,,
2018,08,08,06,27,00,31.5,,,,,,,,,,,,,,
2018,08,08,06,28,00,28.3,,,,,,,,,,,,,,
2018,08,08,06,29,00,31.0,,,,,,,,,,,,,,
2018,08,08,06,30,00,33.4,,,,,,,,,,,,,,
2018,08,08,06,31,00,29.2,,,,,,,,,,,,,,
2018,08,08,06,32,00,27.7,,,,,,,,,,,,,,
2018,08,08,06,33,00,32.4,,,,,,,,,,,,,,
2018,08,08,06,34,00,34.1,,,,,,,,,,,,,,
2018,08,08,06,35,00,29.1,,,,,,,,,,,,,,
2018,08,08,06,36,00,28.2,,,,,,,,,,,,,,
2018,08,08,06,37,00,38.9,,,,,,,,,,,,,,
2018,08,08,06,38,00,36.0,,,,,,,,,,,,,,
2018,08,08,06,39,00,34.0,,,,,,,,,,,,,,
2018,08,08,06,40,00,33.0,,,,,,,,,,,,,,
2018,08,08,06,41,00,37.7,,,,,,,,,,,,,,
2018,08,08,06,42,00,32.6,,,,,,,,,,,,,,
2018,08,08,06,43,00,34.9,,,,,,,,,,,,,,
2018,08,08,06,44,00,33.4,,,,,,,,,,,,,,
2018,08,08,06,45,00,35.0,,,,,,,,,,,,,,
2018,08,08,06,46,00,40.5,,,,,,,,,,,,,,
2018,08,08,06,47,00,50.4,,,,,,,,,,,,,,
2018,08,08,06,48,00,49.9,,,,,,,,,,,,,,
2018,08,08,06,49,00,51.3,,,,,,,,,,,,,,
2018,08,08,06,50,00,38.8,,,,,,,,,,,,,,
2018,08,08,06,51,00,32.9,,,,,,,,,,,,,,
2018,08,08,06,52,00,34.4,,,,,,,,,,,,,,
2018,08,08,06,53,00,34.0,,,,,,,,,,,,,,
2018,08,08,06,54,00,37.4,,,,,,,,,,,,,,
2018,08,08,06,55,00,45.4,,,,,,,,,,,,,,
2018,08,08,06,56,00,45.9,,,,,,,,,,,,,,
2018,08,08,06,57,00,38.5,,,,,,,,,,,,,,
2018,08,08,06,58,00,,,,,,,,,,,,,,,
2018,08,08,06,59,00,,,,,,,,,,,,,,,
2018,08,08,07,00,00,48.5,,,,,,,,,,,,,,
2018,08,08,07,01,00,53.1,,,,,,,,,,,,,,
2018,08,08,07,02,00,39.7,,,,,,,,,,,,,,
2018,08,08,07,03,00,35.1,,,,,,,,,,,,,,
2018,08,08,07,04,00,43.6,,,,,,,,,,,,,,
2018,08,08,07,05,00,38.3,,,,,,,,,,,,,,
2018,08,08,07,06,00,34.2,,,,,,,,,,,,,,
2018,08,08,07,07,00,34.1,,,,,,,,,,,,,,
2018,08,08,07,08,00,32.9,,,,,,,,,,,,,,
2018,08,08,07,09,00,34.4,,,,,,,,,,,,,,
2018,08,08,07,10,00,33.5,,,,,,,,,,,,,,
2018,08,08,07,11,00,37.5,,,,,,,,,,,,,,
2018,08,08,07,12,00,36.9,,,,,,,,,,,,,,
2018,08,08,07,13,00,39.3,,,,,,,,,,,,,,
2018,08,08,07,14,00,34.7,,,,,,,,,,,,,,
2018,08,08,07,15,00,48.3,,,,,,,,,,,,,,
2018,08,08,07,16,00,49.0,,,,,,,,,,,,,,
2018,08,08,07,17,00,44.1,,,,,,,,,,,,,,
2018,08,08,07,18,00,53.3,,,,,,,,,,,,,,
2018,08,08,07,19,00,50.8,,,,,,,,,,,,,,
2018,08,08,07,20,00,56.6,,,,,,,,,,,,,,
2018,08,08,07,21,00,59.5,,,,,,,,,,,,,,
2018,08,08,07,22,00,55.0,,,,,,,,,,,,,,
2018,08,08,07,23,00,54.6,,,,,,,,,,,,,,
2018,08,08,07,24,00,57.1,,,,,,,,,,,,,,
2018,08,08,07,25,00,54.4,,,,,,,,,,,,,,
2018,08,08,07,26,00,53.5,,,,,,,,,,,,,,
2018,08,08,07,27,00,42.9,,,,,,,,,,,,,,
2018,08,08,07,28,00,39.0,,,,,,,,,,,,,,
2018,08,08,07,29,00,46.3,,,,,,,,,,,,,,
2018,08,08,07,30,00,49.9,,,,,,,,,,,,,,
2018,08,08,07,31,00,51.3,,,,,,,,,,,,,,
2018,08,08,07,32,00,58.5,,,,,,,,,,,,,,
2018,08,08,07,33,00,52.1,,,,,,,,,,,,,,
2018,08,08,07,34,00,59.5,,,,,,,,,,,,,,
2018,08,08,07,35,00,54.8,,,,,,,,,,,,,,
2018,08,08,07,36,00,49.3,,,,,,,,,,,,,,
2018,08,08,07,37,00,48.1,,,,,,,,,,,,,,
2018,08,08,07,38,00,60.6,,,,,,,,,,,,,,
2018,08,08,07,39,00,73.7,,,,,,,,,,,,,,
2018,08,08,07,40,00,67.6,,,,,,,,,,,,,,
2018,08,08,07,41,00,60.1,,,,,,,,,,,,,,
2018,08,08,07,42,00,68.5,,,,,,,,,,,,,,
2018,08,08,07,43,00,65.9,,,,,,,,,,,,,,
2018,08,08,07,44,00,69.4,,,,,,,,,,,,,,
2018,08,08,07,45,00,81.7,,,,,,,,,,,,,,
2018,08,08,07,46,00,73.8,,,,,,,,,,,,,,
2018,08,08,07,47,00,71.3,,,,,,,,,,,,,,
2018,08,08,07,48,00,68.6,,,,,,,,,,,,,,
2018,08,08,07,49,00,65.7,,,,,,,,,,,,,,
2018,08,08,07,50,00,57.8,,,,,,,,,,,,,,
2018,08,08,07,51,00,69.1,,,,,,,,,,,,,,
2018,08,08,07,52,00,88.0,,,,,,,,,,,,,,
2018,08,08,07,53,00,92.6,,,,,,,,,,,,,,
2018,08,08,07,54,00,85.2,,,,,,,,,,,,,,
2018,08,08,07,55,00,90.9,,,,,,,,,,,,,,
2018,08,08,07,56,00,91.2,,,,,,,,,,,,,,
2018,08,08,07,57,00,92.2,,,,,,,,,,,,,,
2018,08,08,07,58,00,89.7,,,,,,,,,,,,,,
2018,08,08,07,59,00,94.5,,,,,,,,,,,,,,
2018,08,08,08,00,00,84.6,,,,,,,,,,,,,,
2018,08,08,08,01,00,73.9,,,,,,,,,,,,,,
2018,08,08,08,02,00,62.2,,,,,,,,,,,,,,
2018,08,08,08,03,00,62.8,,,,,,,,,,,,,,
2018,08,08,08,04,00,55.8,,,,,,,,,,,,,,
2018,08,08,08,05,00,52.2,,,,,,,,,,,,,,
2018,08,08,08,06,00,58.2,,,,,,,,,,,,,,
2018,08,08,08,07,00,65.9,,,,,,,,,,,,,,
2018,08,08,08,08,00,58.6,,,,,,,,,,,,,,
2018,08,08,08,09,00,49.8,,,,,,,,,,,,,,
2018,08,08,08,10,00,53.6,,,,,,,,,,,,,,
2018,08,08,08,11,00,59.9,,,,,,,,,,,,,,
2018,08,08,08,12,00,57.1,,,,,,,,,,,,,,
2018,08,08,08,13,00,61.3,,,,,,,,,,,,,,
2018,08,08,08,14,00,66.4,,,,,,,,,,,,,,
2018,08,08,08,15,00,65.0,,,,,,,,,,,,,,
2018,08,08,08,16,00,62.4,,,,,,,,,,,,,,
2018,08,08,08,17,00,57.1,,,,,,,,,,,,,,
2018,08,08,08,18,00,70.0,,,,,,,,,,,,,,
2018,08,08,08,19,00,83.2,,,,,,,,,,,,,,
2018,08,08,08,20,00,76.6,,,,,,,,,,,,,,
2018,08,08,08,21,00,73.0,,,,,,,,,,,,,,
2018,08,08,08,22,00,82.5,,,,,,,,,,,,,,
2018,08,08,08,23,00,82.7,,,,,,,,,,,,,,
2018,08,08,08,24,00,68.6,,,,,,,,,,,,,,
2018,08,08,08,25,00,67.6,,,,,,,,,,,,,,
2018,08,08,08,26,00,76.5,,,,,,,,,,,,,,
2018,08,08,08,27,00,76.1,,,,,,,,,,,,,,
2018,08,08,08,28,00,85.1,,,,,,,,,,,,,,
2018,08,08,08,29,00,77.6,,,,,,,,,,,,,,
2018,08,08,08,30,00,85.6,,,,,,,,,,,,,,
2018,08,08,08,31,00,81.1,,,,,,,,,,,,,,
2018,08,08,08,32,00,86.5,,,,,,,,,,,,,,
2018,08,08,08,33,00,79.6,,,,,,,,,,,,,,
2018,08,08,08,34,00,71.7,,,,,,,,,,,,,,
2018,08,08,08,35,00,75.5,,,,,,,,,,,,,,
2018,08,08,08,36,00,75.6,,,,,,,,,,,,,,
2018,08,08,08,37,00,69.3,,,,,,,,,,,,,,
2018,08,08,08,38,00,72.8,,,,,,,,,,,,,,
2018,08,08,08,39,00,74.1,,,,,,,,,,,,,,
2018,08,08,08,40,00,75.9,,,,,,,,,,,,,,
2018,08,08,08,41,00,75.0,,,,,,,,,,,,,,
2018,08,08,08,42,00,82.0,,,,,,,,,,,,,,
2018,08,08,08,43,00,82.1,,,,,,,,,,,,,,
2018,08,08,08,44,00,77.7,,,,,,,,,,,,,,
2018,08,08,08,45,00,76.9,,,,,,,,,,,,,,
2018,08,08,08,46,00,74.6,,,,,,,,,,,,,,
2018,08,08,08,47,00,82.0,,,,,,,,,,,,,,
2018,08,08,08,48,00,80.9,,,,,,,,,,,,,,
2018,08,08,08,49,00,70.1,,,,,,,,,,,,,,
2018,08,08,08,50,00,74.7,,,,,,,,,,,,,,
2018,08,08,08,51,00,81.5,,,,,,,,,,,,,,
2018,08,08,08,52,00,73.9,,,,,,,,,,,,,,
2018,08,08,08,53,00,65.7,,,,,,,,,,,,,,
2018,08,08,08,54,00,65.7,,,,,,,,,,,,,,
2018,08,08,08,55,00,64.9,,,,,,,,,,,,,,
2018,08,08,08,56,00,66.8,,,,,,,,,,,,,,
2018,08,08,08,57,00,75.7,,,,,,,,,,,,,,
2018,08,08,08,58,00,61.2,,,,,,,,,,,,,,
2018,08,08,08,59,00,63.6,,,,,,,,,,,,,,
2018,08,08,09,00,00,69.0,,,,,,,,,,,,,,
2018,08,08,09,01,00,,,,,,,,,,,,,,,
2018,08,08,09,02,00,,,,,,,,,,,,,,,
2018,08,08,09,03,00,57.4,,,,,,,,,,,,,,
2018,08,08,09,04,00,58.9,,,,,,,,,,,,,,
2018,08,08,09,05,00,55.3,,,,,,,,,,,,,,
2018,08,08,09,06,00,58.1,,,,,,,,,,,,,,
2018,08,08,09,07,00,54.8,,,,,,,,,,,,,,
2018,08,08,09,08,00,55.1,,,,,,,,,,,,,,
2018,08,08,09,09,00,51.9,,,,,,,,,,,,,,
2018,08,08,09,10,00,54.1,,,,,,,,,,,,,,
2018,08,08,09,11,00,54.8,,,,,,,,,,,,,,
2018,08,08,09,12,00,51.4,,,,,,,,,,,,,,
2018,08,08,09,13,00,51.1,,,,,,,,,,,,,,
2018,08,08,09,14,00,55.0,,,,,,,,,,,,,,
2018,08,08,09,15,00,61.8,,,,,,,,,,,,,,
2018,08,08,09,16,00,57.9,,,,,,,,,,,,,,
2018,08,08,09,17,00,61.1,,,,,,,,,,,,,,
2018,08,08,09,18,00,67.4,,,,,,,,,,,,,,
2018,08,08,09,19,00,63.9,,,,,,,,,,,,,,
2018,08,08,09,20,00,67.9,,,,,,,,,,,,,,
2018,08,08,09,21,00,72.4,,,,,,,,,,,,,,
2018,08,08,09,22,00,76.5,,,,,,,,,,,,,,
2018,08,08,09,23,00,68.0,,,,,,,,,,,,,,
2018,08,08,09,24,00,67.7,,,,,,,,,,,,,,
2018,08,08,09,25,00,70.7,,,,,,,,,,,,,,
2018,08,08,09,26,00,79.5,,,,,,,,,,,,,,
2018,08,08,09,27,00,74.5,,,,,,,,,,,,,,
2018,08,08,09,28,00,78.3,,,,,,,,,,,,,,
2018,08,08,09,29,00,83.6,,,,,,,,,,,,,,
2018,08,08,09,30,00,69.2,,,,,,,,,,,,,,
2018,08,08,09,31,00,26.9,,,,,,,,,,,,,,
2018,08,08,09,32,00,57.5,,,,,,,,,,,,,,
2018,08,08,09,33,00,41.2,,,,,,,,,,,,,,
2018,08,08,09,34,00,59.2,,,,,,,,,,,,,,
2018,08,08,09,35,00,52.7,,,,,,,,,,,,,,
2018,08,08,09,36,00,49.6,,,,,,,,,,,,,,
2018,08,08,09,37,00,59.8,,,,,,,,,,,,,,
2018,08,08,09,38,00,62.7,,,,,,,,,,,,,,
2018,08,08,09,39,00,58.1,,,,,,,,,,,,,,
2018,08,08,09,40,00,63.3,,,,,,,,,,,,,,
2018,08,08,09,41,00,71.5,,,,,,,,,,,,,,
2018,08,08,09,42,00,75.9,,,,,,,,,,,,,,
2018,08,08,09,43,00,82.6,,,,,,,,,,,,,,
2018,08,08,09,44,00,74.9,,,,,,,,,,,,,,
2018,08,08,09,45,00,77.1,,,,,,,,,,,,,,
2018,08,08,09,46,00,62.3,,,,,,,,,,,,,,
2018,08,08,09,47,00,50.0,,,,,,,,,,,,,,
2018,08,08,09,48,00,56.2,,,,,,,,,,,,,,
2018,08,08,09,49,00,53.3,,,,,,,,,,,,,,
2018,08,08,09,50,00,58.2,,,,,,,,,,,,,,
2018,08,08,09,51,00,58.2,,,,,,,,,,,,,,
2018,08,08,09,52,00,52.6,,,,,,,,,,,,,,
2018,08,08,09,53,00,59.8,,,,,,,,,,,,,,
2018,08,08,09,54,00,57.2,,,,,,,,,,,,,,
2018,08,08,09,55,00,64.6,,,,,,,,,,,,,,
2018,08,08,09,56,00,62.8,,,,,,,,,,,,,,
2018,08,08,09,57,00,61.1,,,,,,,,,,,,,,
2018,08,08,09,58,00,68.6,,,,,,,,,,,,,,
2018,08,08,09,59,00,61.6,,,,,,,,,,,,,,
2018,08,08,10,00,00,67.3,,,,,,,,,,,,,,
2018,08,08,10,01,00,64.5,,,,,,,,,,,,,,
2018,08,08,10,02,00,75.2,,,,,,,,,,,,,,
2018,08,08,10,03,00,82.3,,,,,,,,,,,,,,
2018,08,08,10,04,00,82.6,,,,,,,,,,,,,,
2018,08,08,10,05,00,84.5,,,,,,,,,,,,,,
2018,08,08,10,06,00,85.7,,,,,,,,,,,,,,
2018,08,08,10,07,00,91.7,,,,,,,,,,,,,,
2018,08,08,10,08,00,96.3,,,,,,,,,,,,,,
2018,08,08,10,09,00,93.2,,,,,,,,,,,,,,
2018,08,08,10,10,00,89.0,,,,,,,,,,,,,,
2018,08,08,10,11,00,86.4,,,,,,,,,,,,,,
2018,08,08,10,12,00,86.2,,,,,,,,,,,,,,